Weather History for Three Rivers, MI

Change the Weather History Date:

Wednesday, July 10, 2013

  Actual Average Record
Temperature  
Mean Temperature 73 °F -  
Max Temperature 84 °F 85 °F 95 °F (1974)
Min Temperature 61 °F 63 °F 42 °F (1963)
Cooling Degree Days 8    
Growing Degree Days 23 (Base 50)    
Moisture  
Dew Point 67 °F    
Average Humidity 75    
Maximum Humidity 95    
Minimum Humidity 50    
Precipitation  
Precipitation 0.00 in - - ()
Sea Level Pressure  
Sea Level Pressure 29.89 in    
Wind  
Wind Speed 7 mph (WNW)    
Max Wind Speed 17 mph    
Max Gust Speed 24 mph    
Visibility 8 miles    
Events      
Averages and records for this station are not official NWS values.
T = Trace of Precipitation, MM = Missing Value Source: NWS Daily Summary

Daily Weather History Graph

Daily Weather History Graph

Search for Another Location

Airport:

Trip Planner

Search our weather history database for the weather conditions in past years. The results will help you decide how hot, cold, wet, or windy it might be!

Date:

Astronomy

Jul. 10, 2013 Rise Set
Actual Time 6:16 AM EDT 9:18 PM EDT
Civil Twilight 5:42 AM EDT 9:52 PM EDT
Nautical Twilight 4:59 AM EDT 10:35 PM EDT
Astronomical Twilight 4:09 AM EDT 11:25 PM EDT
Moon 8:39 AM EDT (7/10) 10:24 PM EDT (7/10)
Length of Visible Light 16h 09m
Length of Day
15h 02m
Waxing Crescent, 5% of the Moon is Illuminated
Jul 10
Waxing Crescent
Jul 15
First Quarter
Jul 22
Full
Jul 29
Last Quarter
Aug 6
New

Hourly Weather History & Observations

Time (EDT) Temp. Heat Index Dew Point Humidity Pressure Visibility Wind Dir Wind Speed Gust Speed Precip Events Conditions
12:15 AM 75.4 °F - 73.0 °F 92% 29.91 in 7.0 mi SW 4.6 mph - N/A   Scattered Clouds
12:34 AM 76.1 °F - 73.6 °F 92% 29.90 in 7.0 mi SW 5.8 mph - N/A   Mostly Cloudy
12:54 AM 77.0 °F - 73.6 °F 89% 29.90 in 10.0 mi SW 5.8 mph - N/A   Overcast
1:15 AM 77.0 °F - 73.4 °F 89% 29.90 in 10.0 mi SW 4.6 mph - N/A   Scattered Clouds
1:34 AM 77.0 °F - 73.2 °F 88% 29.90 in 10.0 mi WSW 4.6 mph - N/A   Scattered Clouds
1:54 AM 76.8 °F - 73.2 °F 89% 29.90 in 10.0 mi WSW 4.6 mph - N/A   Scattered Clouds
2:14 AM 77.0 °F - 73.0 °F 88% 29.89 in 10.0 mi WSW 4.6 mph - N/A   Scattered Clouds
2:34 AM 76.1 °F - 72.7 °F 89% 29.88 in 7.0 mi WSW 3.5 mph - N/A   Clear
2:54 AM 76.1 °F - 72.7 °F 89% 29.88 in 7.0 mi SW 4.6 mph - N/A   Clear
3:14 AM 76.3 °F - 72.9 °F 89% 29.88 in 7.0 mi WSW 6.9 mph - N/A   Clear
3:35 AM 76.5 °F - 72.9 °F 89% 29.87 in 7.0 mi WSW 3.5 mph - N/A   Clear
3:54 AM 76.5 °F - 72.9 °F 89% 29.87 in 7.0 mi SW 4.6 mph - N/A   Clear
4:14 AM 76.6 °F - 73.0 °F 89% 29.87 in 7.0 mi WSW 5.8 mph - N/A   Clear
4:35 AM 76.3 °F - 72.7 °F 89% 29.87 in 7.0 mi SW 5.8 mph - N/A   Clear
4:54 AM 76.1 °F - 72.7 °F 89% 29.87 in 7.0 mi SW 5.8 mph - N/A   Clear
5:14 AM 75.4 °F - 72.5 °F 91% 29.87 in 7.0 mi SW 4.6 mph - N/A   Clear
5:35 AM 74.8 °F - 72.5 °F 92% 29.87 in 5.0 mi SW 3.5 mph - N/A   Clear
5:54 AM 73.9 °F - 71.6 °F 92% 29.87 in 5.0 mi Calm Calm - N/A   Clear
6:14 AM 73.2 °F - 71.2 °F 93% 29.87 in 4.0 mi NW 3.5 mph - N/A   Clear
6:34 AM 72.5 °F - 70.7 °F 94% 29.87 in 1.8 mi West 4.6 mph - N/A   Mist
6:54 AM 73.4 °F - 71.6 °F 94% 29.87 in 2.0 mi NW 3.5 mph - N/A   Clear
7:15 AM 73.9 °F - 72.5 °F 95% 29.87 in 2.0 mi West 4.6 mph - N/A   Clear
7:34 AM 74.7 °F - 73.0 °F 95% 29.87 in 3.0 mi WNW 3.5 mph - N/A   Scattered Clouds
7:54 AM 75.6 °F - 73.4 °F 93% 29.87 in 4.0 mi Calm Calm - N/A   Mostly Cloudy
8:15 AM 77.0 °F - 73.8 °F 90% 29.87 in 5.0 mi West 4.6 mph - N/A   Mostly Cloudy
8:34 AM 78.1 °F - 74.3 °F 88% 29.86 in 7.0 mi West 4.6 mph - N/A   Scattered Clouds
8:54 AM 78.8 °F - 73.9 °F 85% 29.87 in 7.0 mi West 5.8 mph - N/A   Mostly Cloudy
9:15 AM 79.7 °F - 74.3 °F 83% 29.87 in 7.0 mi West 5.8 mph - N/A   Overcast
9:34 AM 80.2 °F 85.2 °F 74.7 °F 83% 29.86 in 5.0 mi WNW 4.6 mph - N/A   Haze
9:54 AM 81.5 °F 87.6 °F 74.7 °F 80% 29.86 in 5.0 mi WNW 8.1 mph - N/A   Haze
10:15 AM 82.0 °F 88.4 °F 74.7 °F 78% 29.86 in 7.0 mi West 6.9 mph - N/A   Mostly Cloudy
10:34 AM 81.5 °F 87.4 °F 74.5 °F 79% 29.86 in 7.0 mi West 6.9 mph - N/A   Mostly Cloudy
10:54 AM 81.7 °F 87.3 °F 73.8 °F 77% 29.86 in 10.0 mi WNW 6.9 mph 18.4 mph N/A   Overcast
11:14 AM 82.2 °F 88.5 °F 74.3 °F 77% 29.85 in 10.0 mi West 8.1 mph - N/A   Mostly Cloudy
11:34 AM 82.2 °F 87.6 °F 72.9 °F 73% 29.86 in 10.0 mi WNW 8.1 mph - N/A   Overcast
11:55 AM 82.4 °F 87.9 °F 72.9 °F 73% 29.85 in 10.0 mi WNW 12.7 mph - N/A   Mostly Cloudy
12:14 PM 83.5 °F 89.1 °F 72.3 °F 69% 29.85 in 10.0 mi WNW 13.8 mph 17.3 mph N/A   Scattered Clouds
12:34 PM 84.0 °F 89.3 °F 71.8 °F 66% 29.86 in 10.0 mi WNW 17.3 mph - N/A   Scattered Clouds
12:55 PM 82.6 °F 86.8 °F 70.7 °F 67% 29.86 in 10.0 mi WNW 16.1 mph 21.9 mph N/A   Scattered Clouds
1:14 PM 81.3 °F 85.2 °F 70.7 °F 70% 29.86 in 10.0 mi WNW 11.5 mph 19.6 mph N/A   Scattered Clouds
1:34 PM 80.1 °F 83.2 °F 69.8 °F 71% 29.87 in 10.0 mi WNW 11.5 mph 18.4 mph N/A   Mostly Cloudy
1:55 PM 81.7 °F 85.4 °F 70.2 °F 68% 29.86 in 10.0 mi WNW 16.1 mph 24.2 mph N/A   Mostly Cloudy
2:14 PM 80.6 °F 83.6 °F 69.3 °F 68% 29.87 in 10.0 mi WNW 17.3 mph 21.9 mph N/A   Scattered Clouds
2:34 PM 81.7 °F 84.5 °F 68.2 °F 63% 29.88 in 10.0 mi WNW 17.3 mph 23.0 mph N/A   Mostly Cloudy
2:54 PM 80.6 °F 82.7 °F 65.8 °F 61% 29.90 in 10.0 mi WNW 17.3 mph 24.2 mph N/A   Scattered Clouds
3:14 PM 79.7 °F - 62.8 °F 56% 29.91 in 10.0 mi WNW 15.0 mph 20.7 mph N/A   Clear
3:35 PM 80.2 °F 81.3 °F 61.9 °F 53% 29.93 in 10.0 mi West 15.0 mph 21.9 mph N/A   Clear
3:54 PM 79.9 °F - 61.3 °F 53% 29.92 in 10.0 mi NW 15.0 mph 20.7 mph N/A   Clear
4:14 PM 78.4 °F - 61.7 °F 56% 29.92 in 10.0 mi West 17.3 mph 20.7 mph N/A   Scattered Clouds
4:35 PM 78.6 °F - 61.7 °F 56% 29.90 in 10.0 mi WNW 15.0 mph 20.7 mph N/A   Clear
4:54 PM 77.5 °F - 61.0 °F 57% 29.89 in 10.0 mi NW 13.8 mph 20.7 mph N/A   Clear
5:14 PM 77.4 °F - 61.0 °F 57% 29.88 in 10.0 mi NW 16.1 mph 20.7 mph N/A   Clear
5:35 PM 77.0 °F - 60.1 °F 56% 29.88 in 10.0 mi NW 13.8 mph 19.6 mph N/A   Clear
5:54 PM 75.9 °F - 58.1 °F 54% 29.89 in 10.0 mi NW 17.3 mph 21.9 mph N/A   Clear
6:15 PM 75.4 °F - 55.8 °F 50% 29.89 in 10.0 mi NW 11.5 mph 18.4 mph N/A   Clear
6:34 PM 74.7 °F - 54.9 °F 50% 29.90 in 10.0 mi NNW 8.1 mph 18.4 mph N/A   Clear
6:54 PM 73.9 °F - 54.0 °F 50% 29.90 in 10.0 mi NW 15.0 mph 19.6 mph N/A   Clear
7:15 PM 73.4 °F - 54.5 °F 51% 29.91 in 10.0 mi NNW 12.7 mph 19.6 mph N/A   Clear
7:34 PM 72.9 °F - 53.2 °F 50% 29.91 in 10.0 mi NNW 15.0 mph 20.7 mph N/A   Clear
7:54 PM 72.1 °F - 53.6 °F 52% 29.91 in 10.0 mi NNW 11.5 mph 19.6 mph N/A   Clear
8:15 PM 71.2 °F - 54.3 °F 55% 29.92 in 10.0 mi NNW 6.9 mph - N/A   Clear
8:34 PM 70.5 °F - 54.5 °F 57% 29.93 in 10.0 mi NW 6.9 mph - N/A   Clear
8:54 PM 69.6 °F - 54.9 °F 59% 29.94 in 10.0 mi NW 5.8 mph - N/A   Clear
9:15 PM 68.0 °F - 55.6 °F 64% 29.95 in 10.0 mi Calm Calm - N/A   Clear
9:34 PM 67.1 °F - 55.8 °F 67% 29.96 in 10.0 mi NW 3.5 mph - N/A   Clear
9:54 PM 66.2 °F - 55.9 °F 69% 29.97 in 10.0 mi NW 4.6 mph - N/A   Clear
10:14 PM 65.3 °F - 55.8 °F 71% 29.97 in 10.0 mi NNW 3.5 mph - N/A   Clear
10:34 PM 65.1 °F - 55.8 °F 72% 29.97 in 10.0 mi NNW 3.5 mph - N/A   Clear
10:55 PM 64.4 °F - 55.9 °F 74% 29.98 in 10.0 mi NW 3.5 mph - N/A   Clear
11:14 PM 64.0 °F - 55.8 °F 74% 29.99 in 10.0 mi NW 3.5 mph - N/A   Clear
11:34 PM 62.6 °F - 56.3 °F 80% 30.00 in 10.0 mi Calm Calm - N/A   Clear
11:54 PM 61.7 °F - 56.7 °F 84% 30.00 in 10.0 mi Calm Calm - N/A   Clear